Falls Lake Weather Center

Moon Phase Calendar



Falls Lake Water Level
Online Cameras

 


      

Current Conditions in Gorman
1/25/2022 9:29:23 AM

40°F
Feels Like 36
Clouds
Humidity
79%
Pressure
29.97"
Wind
5.8 mph (SSW)
Dew Point
34°F
UV Index
1/10 (Low)
Visibility
6 mi

Hourly Forecast

Date & Time Tue, Jan 25
9:00 AM
Tue, Jan 25
10:00 AM
Tue, Jan 25
11:00 AM
Tue, Jan 25
12:00 PM
Tue, Jan 25
1:00 PM
Tue, Jan 25
2:00 PM
Tue, Jan 25
3:00 PM
Tue, Jan 25
4:00 PM
Tue, Jan 25
5:00 PM
Tue, Jan 25
6:00 PM
Tue, Jan 25
7:00 PM
Tue, Jan 25
8:00 PM
Tue, Jan 25
9:00 PM
Tue, Jan 25
10:00 PM
Tue, Jan 25
11:00 PM
Wed, Jan 26
12:00 AM
Wed, Jan 26
1:00 AM
Wed, Jan 26
2:00 AM
Wed, Jan 26
3:00 AM
Wed, Jan 26
4:00 AM
Wed, Jan 26
5:00 AM
Wed, Jan 26
6:00 AM
Wed, Jan 26
7:00 AM
Wed, Jan 26
8:00 AM
Wed, Jan 26
9:00 AM
Wed, Jan 26
10:00 AM
Wed, Jan 26
11:00 AM
Wed, Jan 26
12:00 PM
Wed, Jan 26
1:00 PM
Wed, Jan 26
2:00 PM
Wed, Jan 26
3:00 PM
Wed, Jan 26
4:00 PM
Wed, Jan 26
5:00 PM
Wed, Jan 26
6:00 PM
Wed, Jan 26
7:00 PM
Wed, Jan 26
8:00 PM
Wed, Jan 26
9:00 PM
Wed, Jan 26
10:00 PM
Wed, Jan 26
11:00 PM
Thu, Jan 27
12:00 AM
Thu, Jan 27
1:00 AM
Thu, Jan 27
2:00 AM
Thu, Jan 27
3:00 AM
Thu, Jan 27
4:00 AM
Thu, Jan 27
5:00 AM
Thu, Jan 27
6:00 AM
Thu, Jan 27
7:00 AM
Thu, Jan 27
8:00 AM
Condition
Clouds

Clouds

Clouds

Clouds

Clouds

Clouds

Clouds

Clouds

Clouds

Clouds

Clouds

Clouds

Clouds

Clouds

Clouds

Clouds

Clouds

Clouds

Clouds

Clouds

Clouds

Clouds

Clouds

Clouds

Clouds

Clouds

Clouds

Clouds

Clouds

Clouds

Clouds

Clouds

Clouds

Clouds

Clouds

Clear

Clear

Clear

Clear

Clear

Clear

Clear

Clear

Clear

Clear

Clear

Clear

Clear
Temperature 40°F42°F44°F48°F53°F56°F56°F56°F51°F48°F48°F45°F44°F44°F43°F42°F41°F39°F38°F37°F36°F34°F33°F32°F32°F33°F34°F36°F39°F40°F41°F40°F38°F34°F32°F31°F30°F29°F28°F28°F27°F26°F26°F25°F25°F25°F24°F26°F
Feels Like 38°F40°F43°F47°F50°F54°F54°F54°F49°F44°F43°F41°F40°F39°F38°F37°F36°F34°F32°F31°F29°F28°F26°F25°F24°F25°F28°F30°F34°F36°F36°F35°F34°F29°F27°F26°F24°F24°F23°F21°F21°F20°F20°F19°F18°F19°F19°F20°F
Cloudiness 75%80%85%90%95%100%100%100%99%99%99%73%86%91%93%94%95%100%100%100%100%100%100%100%100%100%100%100%100%100%100%100%100%83%70%0%0%0%0%0%0%0%0%0%0%0%0%0%
Visibility 6 mi6 mi6 mi6 mi6 mi6 mi6 mi6 mi6 mi6 mi6 mi6 mi6 mi6 mi6 mi6 mi6 mi6 mi6 mi6 mi6 mi6 mi6 mi6 mi6 mi6 mi6 mi6 mi6 mi6 mi6 mi6 mi6 mi6 mi6 mi6 mi6 mi6 mi6 mi6 mi6 mi6 mi6 mi6 mi6 mi6 mi6 mi6 mi
Precipitation 0%0%0%0%0%0%0%0%0%0%0%4%4%4%0%0%0%0%0%0%0%0%0%0%0%0%0%0%0%0%0%0%0%0%0%0%0%0%0%0%0%0%0%0%0%0%0%0%
Humidity 79%75%71%63%55%50%51%55%66%75%71%73%70%73%79%82%83%85%87%86%82%78%75%70%66%62%58%54%48%45%44%45%52%61%65%67%69%69%69%68%69%70%71%70%68%67%67%63%
Dew Point 34°F34°F35°F36°F37°F38°F38°F40°F40°F40°F39°F37°F35°F35°F37°F37°F36°F35°F34°F33°F30°F28°F26°F23°F22°F21°F21°F21°F21°F20°F20°F20°F22°F22°F21°F21°F21°F20°F19°F18°F18°F18°F17°F16°F15°F15°F15°F14°F
Pressure 29.97"29.97"29.97"30"29.97"29.94"29.94"29.97"30"30.03"30.09"30.09"30.12"30.15"30.15"30.15"30.18"30.18"30.18"30.21"30.21"30.27"30.3"30.3"30.33"30.36"30.36"30.36"30.33"30.3"30.3"30.33"30.33"30.36"30.39"30.39"30.42"30.42"30.42"30.42"30.42"30.45"30.45"30.45"30.45"30.47"30.47"30.47"
Wind Speed 3.5 mph3.2 mph3.1 mph3.2 mph2.6 mph1.9 mph2.5 mph2.8 mph3.3 mph6.7 mph8.7 mph8.2 mph7.4 mph8.6 mph7.8 mph7.9 mph7.6 mph7.7 mph8 mph8.2 mph8.4 mph8.1 mph8.7 mph8.7 mph8.9 mph8.1 mph7.7 mph6.8 mph6.5 mph6.6 mph7 mph6.6 mph5.6 mph5.3 mph5.3 mph5 mph5.2 mph4.8 mph4.8 mph5.5 mph5.4 mph5.1 mph4.8 mph4.9 mph5.1 mph4.6 mph4.2 mph4.8 mph
Wind
Direction
232°
SW
214°
SW
212°
SSW
244°
WSW
258°
WSW
293°
WNW
346°
NNW
357°
N
10°
N
358°
N

N

N
359°
N

N
13°
NNE
24°
NNE
20°
NNE
31°
NNE
36°
NE
35°
NE
38°
NE
29°
NNE
30°
NNE
32°
NNE
31°
NNE
33°
NNE
31°
NNE
31°
NNE
25°
NNE
14°
NNE
11°
N
16°
NNE
32°
NNE
44°
NE
53°
NE
62°
ENE
68°
ENE
66°
ENE
57°
ENE
66°
ENE
74°
ENE
64°
ENE
53°
NE
47°
NE
46°
NE
53°
NE
57°
ENE
64°
ENE

Daily Forecast

Date High Low Precip. Humidity
Today
Jan 25

Clouds
56 °F
37 °F
4%
63%
Wednesday
Jan 26

Clouds
42 °F
28 °F
0%
54%
Thursday
Jan 27

Clear
43 °F
24 °F
0%
35%
Friday
Jan 28

Rain
46 °F
32 °F
93%
47%
Saturday
Jan 29

Snow
37 °F
23 °F
99%
45%
Sunday
Jan 30

Clouds
39 °F
20 °F
0%
20%
Monday
Jan 31

Clouds
47 °F
27 °F
0%
28%
Tuesday
Feb 1

Clouds
51 °F
31 °F
0%
45%
Wednesday
Feb 2

Clouds
62 °F
39 °F
0%
53%
Thursday
Feb 3

Clouds
65 °F
54 °F
0%
64%
Friday
Feb 4

Rain
65 °F
52 °F
39%
83%
Saturday
Feb 5

Rain
49 °F
44 °F
66%
86%
Sunday
Feb 6

Rain
47 °F
26 °F
40%
40%
Monday
Feb 7

Clear
38 °F
21 °F
0%
18%
Tuesday
Feb 8

Clouds
53 °F
26 °F
0%
57%
Wednesday
Feb 9

Clouds
63 °F
43 °F
0%
72%

Temperature 8-14 Day Outlook



Precipitation 8-14 Day Outlook




Quick Links
Falls Lake News
Falls Lake Photos
Falls Lake Videos




About Us
Contact Us
Site Map
Search Site
Advertise With Us
   
Falls.USLakes.info
THE FALLS LAKE WEBSITE

Copyright 2022, Lakes Online
Privacy    |    Legal